Location: Azul
(36.7830°S, 59.8500°W)
Time: 00:43:42
(UTC-03:00)

CUBEBUG 2 - Pass Details

Date: 25 October 2021
Orbit: 584 x 697 km, 97.7° (Epoch: 30 November)

Event Time Altitude Azimuth Distance (km) Brightness Sun altitude
Exits shadow 03:55:50 60° 230° (SW) 701 ? -23.4°
Drops below altitude 10° 03:59:33 10° 197° (SSW) 1,997 ? -22.8°
Sets 04:01:48 0° 194° (SSW) 2,928 ? -22.4°
